Weather History for Denver Centennial, CO

Change the Weather History Date:

Friday, March 19, 2004

  Actual Average Record
Temperature  
Mean Temperature 60 °F -  
Max Temperature 75 °F 53 °F 75 °F (2004)
Min Temperature 45 °F 28 °F 18 °F (2002)
Degree Days  
Heating Degree Days 5    
Growing Degree Days 10 (Base 50)    
Moisture  
Dew Point 20 °F    
Average Humidity 21    
Maximum Humidity 48    
Minimum Humidity 12    
Precipitation  
Precipitation 0.00 in - - ()
Sea Level Pressure  
Sea Level Pressure 29.93 in    
Wind  
Wind Speed 9 mph (WSW)    
Max Wind Speed 18 mph    
Max Gust Speed -    
Visibility 10 miles    
Events      
Averages and records for this station are not official NWS values.
T = Trace of Precipitation, MM = Missing Value Source: NWS Daily Summary

Daily Weather History Graph

Daily Weather History Graph

Search for Another Location

Airport:

Trip Planner

Search our weather history database for the weather conditions in past years. The results will help you decide how hot, cold, wet, or windy it might be!

Date:

Astronomy

Mar. 19, 2004 Rise Set
Actual Time 6:03 AM MST 6:10 PM MST
Civil Twilight 5:36 AM MST 6:37 PM MST
Nautical Twilight 5:05 AM MST 7:09 PM MST
Astronomical Twilight 4:33 AM MST 7:41 PM MST
Moon 5:48 AM MST (3/19) 5:02 PM MST (3/19)
Length of Visible Light 13h 00m
Length of Day
12h 07m
Waning Crescent, 2% of the Moon is Illuminated
Mar 19
Waning Crescent
Mar 20
New
Mar 28
First Quarter
Apr 5
Full
Apr 11
Last Quarter

Hourly Weather History & Observations

Time (MST) Temp. Windchill Dew Point Humidity Pressure Visibility Wind Dir Wind Speed Gust Speed Precip Events Conditions
12:53 AM 45.0 °F 41.8 °F 26.1 °F 48% 29.93 in 10.0 mi SSE 5.8 mph - N/A   Scattered Clouds
1:53 AM 48.9 °F - 23.0 °F 36% 29.89 in 10.0 mi Variable 4.6 mph - N/A   Scattered Clouds
2:53 AM 55.0 °F - 19.0 °F 24% 29.85 in 10.0 mi WSW 12.7 mph - N/A   Mostly Cloudy
3:53 AM 52.0 °F - 19.0 °F 27% 29.86 in 10.0 mi SW 18.4 mph - N/A   Mostly Cloudy
4:53 AM 51.1 °F - 18.0 °F 27% 29.88 in 10.0 mi SSW 12.7 mph - N/A   Scattered Clouds
5:53 AM 50.0 °F - 18.0 °F 28% 29.91 in 10.0 mi SSW 9.2 mph - N/A   Scattered Clouds
6:53 AM 54.0 °F - 19.0 °F 25% 29.93 in 10.0 mi SSW 12.7 mph - N/A   Mostly Cloudy
7:53 AM 60.1 °F - 19.0 °F 20% 29.93 in 10.0 mi SW 11.5 mph - N/A   Scattered Clouds
8:53 AM 66.0 °F - 21.0 °F 18% 29.92 in 10.0 mi SSW 13.8 mph - N/A   Scattered Clouds
9:53 AM 69.1 °F - 19.0 °F 15% 29.92 in 10.0 mi Variable 4.6 mph - N/A   Scattered Clouds
10:53 AM 70.0 °F - 18.0 °F 14% 29.91 in 10.0 mi Variable 3.5 mph - N/A   Scattered Clouds
11:53 AM 73.0 °F - 19.9 °F 14% 29.91 in 10.0 mi NW 5.8 mph - N/A   Scattered Clouds
12:53 PM 73.0 °F - 19.0 °F 13% 29.91 in 10.0 mi Variable 4.6 mph - N/A   Mostly Cloudy
1:53 PM 75.9 °F - 19.9 °F 12% 29.88 in 10.0 mi North 6.9 mph - N/A   Mostly Cloudy
2:53 PM 75.9 °F - 19.9 °F 12% 29.86 in 10.0 mi WNW 8.1 mph - N/A   Mostly Cloudy
3:53 PM 75.0 °F - 19.0 °F 12% 29.88 in 10.0 mi North 4.6 mph - N/A   Mostly Cloudy
4:53 PM 72.0 °F - 19.0 °F 13% 29.90 in 10.0 mi WNW 11.5 mph - N/A   Mostly Cloudy
5:53 PM 71.1 °F - 18.0 °F 13% 29.93 in 10.0 mi West 8.1 mph - N/A   Mostly Cloudy
6:53 PM 66.0 °F - 18.0 °F 16% 29.96 in 10.0 mi WSW 9.2 mph - N/A   Mostly Cloudy
7:53 PM 64.9 °F - 18.0 °F 16% 29.97 in 10.0 mi West 6.9 mph - N/A   Mostly Cloudy
8:53 PM 62.1 °F - 19.0 °F 19% 29.99 in 10.0 mi WSW 5.8 mph - N/A   Mostly Cloudy
9:53 PM 59.0 °F - 19.0 °F 21% 30.02 in 10.0 mi SW 8.1 mph - N/A   Mostly Cloudy
10:53 PM 53.1 °F - 19.9 °F 27% 30.05 in 10.0 mi SW 9.2 mph - N/A   Mostly Cloudy
11:53 PM 51.1 °F - 21.0 °F 31% 30.06 in 10.0 mi South 5.8 mph - N/A   Mostly Cloudy